OBJECT BS, 43822

Orbit data source: Space-Track

You're viewing an uncataloged RSO

Recently launched and/or uncataloged RSOs may have evolving metadata. Metadata may include the following, but is not limited to: Owner, Manufacturer, Bus, Motor, and Mission.

OBJECT BS, 43822 is a satellite in SSO that was launched on Mon, 03 Dec 2018 UTC via an FALCON 9 launch vehicle from the Air Force Western Test Range (AFWTR). Unknown objects in Earth's orbit typically refer to objects detected orbiting the Earth but have not yet been identified or cataloged. These objects could be anything from previously untracked satellites, spent rocket stages, debris from satellite collisions, or even natural meteoroids temporarily captured by Earth's gravity.

Loading next visibility...
Identifier
43822, 2018-099BS
Orbit
SSO
Country
Flag of TBDTBD
Related business
None
Manufacturer
Unknown
Mission
Amateur Technology
Bus & Motor
Unknown
Mass
Unknown
Launch date (UTC)
2018-12-03 (8 years ago)
Launch vehicle
FALCON 9
Launch site
Air Force Western Test Range (AFWTR)
Object type
Unknown
Shape & HBR
Box, 0.3 m
Radar Cross Section
0.025 m², Medium (>0.1 m² and < 1m²)

Expand to show TLE details & history
Last TLE update: 14 hours ago

TLE from 14 hours ago
0 OBJECT BS
1 43822U 18099BS  26255.12851468  .00003205  00000-0  17394-3 0  9998
2 43822  97.4234 303.1943 0008976  57.4367 302.7731 15.15214947419382
Epoch: 2026-09-12T03:05Z
TLE epoch observation values (Epoch: 2026-09-12T03:05:03.668Z)
Latitude
-0.00004°
Longitude
-94.21294°
Altitude
520.061 km
Speed
7.605 km/s
True Right ascension
20h 12m 46s
True Declination
0° 00' 00"
Sunlit
Object was in full shadow at epoch
Visualization orbit readout
Latitude
Unknown
Longitude
Unknown
Altitude
Unknown
Speed
Unknown
Apparent Right ascension
Unknown
Apparent Declination
Unknown
Sunlit
N/A
Visualization observer readout
Local Sidereal Time
09:44:42
Azimuth
Unknown
Elevation
Unknown
Doppler factor
Unknown
Orbital elements
Apogee altitude
523.488 km
Perigee altitude
511.11 km
Semi-major axis
6,895.436 km
Eccentricity
0.0009
Inclination
97.4234°
RAAN
303.1943°
Arg. of periapsis
57.4367°
True anomaly
302.68656°
Mean anomaly
302.7731°
Eccentric anomaly
302.72984°
Mean motion
3.79054 °/min
Orbital period
94.97 mins
BSTAR
0.00017394
Loading maneuver chart data...
Computing Atmospheric mass density...
Loading historical data...
Loading historical data...
Loading historical data...
Loading historical data...
Loading historical data...
Loading historical data...
Loading historical data...

Documentation

Showing up to 5 results
|